Location: Santa Maria di Sala
(45.5070°N, 12.0300°E)
Time: 08:20:38
(UTC+02:00)

STRAND 1 - Pass Details

Date: 03 March 2024
Orbit: 764 x 779 km, 98.4° (Epoch: 16 April)

Event Time Altitude Azimuth Distance (km) Brightness Sun altitude
Rises 04:52:28 0° 138° (SE) 3,252 ? -20.7°
Reaches altitude 10° 04:54:56 10° 130° (SE) 2,329 ? -20.2°
Maximum altitude 04:59:32 34° 66° (ENE) 1,263 ? -19.4°
Drops below altitude 10° 05:04:09 10° 3° (N) 2,341 ? -18.6°
Sets 05:06:38 0° 355° (N) 3,271 ? -18.2°
